User: anonymous   Login
Location: Theydon Bois
(51.6750°N, 0.1050°E)
Time: 19:23:35
(UTC+01:00)
Language:

Cosmos 1953 - Orbit

View from above orbital plane
View from above orbital plane
View from above satellite
View from above satellite

Ground track
Ground track

The orbit data is extracted from the following two-line orbital elements,

1 19210U 88050A   18196.91306858 +.00000196 +00000-0 +11544-4 0  9994
2 19210 082.5169 011.5445 0013202 002.9119 357.2182 15.05596068615944
Epoch (UTC): 15 July 2018 21:54:49
Eccentricity: 0.0013202
inclination: 82.5169°
perigee height: 540 km
apogee height: 559 km
right ascension of ascending node: 11.5445°
argument of perigee: 2.9119°
revolutions per day: 15.05596068
mean anomaly at epoch: 357.2182°
orbit number at epoch: 61594

The dashed part of the orbit path shows where the satellite is in the earth's shadow,  

DLR